| time (UTC) | temp F | wind direction | speed knots | gust knots | rain 1hr in | rain 24hr in | rain mn in | humidity % | barometer mb |
| 20260901081204 | 80 | 349 | 2.6 | 5.2 | 0.00 | 0.00 | 0.00 | 55 | 1012.2 |
| 20260901080203 | 80 | 9 | 0.9 | 5.2 | 0.00 | 0.00 | 0.00 | 55 | 1012.2 |
| 20260901074203 | 79 | 352 | 0.0 | 2.6 | 0.00 | 0.00 | 0.00 | 54 | 1012.2 |
| 20260901073704 | 79 | 345 | 1.7 | 2.6 | 0.00 | 0.00 | 0.00 | 54 | 1012.2 |
| 20260901073204 | 79 | 345 | 1.7 | 2.6 | 0.00 | 0.00 | 0.00 | 53 | 1012.2 |
| 20260901071203 | 79 | 325 | 0.9 | 2.6 | 0.00 | 0.00 | 0.00 | 51 | 1012.1 |
| 20260901070704 | 78 | 321 | 0.9 | 1.7 | 0.00 | 0.00 | 0.00 | 52 | 1012.1 |
| 20260901070203 | 78 | 321 | 0.0 | 0.9 | 0.00 | 0.00 | 0.00 | 50 | 1012.1 |
| 20260901064704 | 76 | 321 | 0.9 | 2.6 | 0.00 | 0.00 | 0.00 | 52 | 1012.1 |
| 20260901064203 | 75 | 321 | 0.0 | 0.9 | 0.00 | 0.00 | 0.00 | 54 | 1012.1 |
| 20260901063203 | 74 | 321 | 0.0 | 1.7 | 0.00 | 0.00 | 0.00 | 56 | 1012.1 |
| 20260901061703 | 73 | 321 | 0.0 | 0.9 | 0.00 | 0.00 | 0.00 | 58 | 1011.8 |
| 20260901053704 | 70 | 321 | 0.0 | 0.0 | 0.00 | 0.00 | 0.00 | 62 | 1011.8 |
| 20260901051703 | 70 | 321 | 0.9 | 2.6 | 0.00 | 0.00 | 0.00 | 62 | 1011.5 |
| 20260901050703 | 69 | 321 | 1.7 | 2.6 | 0.00 | 0.00 | 0.00 | 62 | 1011.5 |
| 20260901050203 | 69 | 321 | 0.9 | 2.6 | 0.00 | 0.00 | 0.00 | 62 | 1011.5 |
| 20260901041703 | 70 | 321 | 0.9 | 1.7 | 0.00 | 0.00 | 0.00 | 61 | 1011.5 |
| 20260901040203 | 71 | 321 | 0.0 | 1.7 | 0.00 | 0.00 | 0.00 | 59 | 1011.5 |
| 20260901034703 | 71 | 321 | 0.0 | 0.9 | 0.00 | 0.00 | 0.00 | 58 | 1011.5 |
| 20260901024703 | 70 | 291 | 0.9 | 1.7 | 0.00 | 0.00 | 0.00 | 60 | 1011.0 |
| 20260901023203 | 71 | 291 | 0.0 | 0.9 | 0.00 | 0.00 | 0.00 | 59 | 1011.0 |
| 20260901021703 | 71 | 291 | 0.0 | 0.9 | 0.00 | 0.00 | 0.00 | 59 | 1010.8 |
| 20260901021203 | 71 | 291 | 0.0 | 0.9 | 0.00 | 0.00 | 0.00 | 59 | 1010.8 |
| 20260901014704 | 71 | 291 | 0.9 | 2.6 | 0.00 | 0.00 | 0.00 | 58 | 1010.7 |
| 20260901013703 | 72 | 291 | 1.7 | 2.6 | 0.00 | 0.00 | 0.00 | 56 | 1010.1 |
| 20260901011703 | 74 | 291 | 1.7 | 2.6 | 0.00 | 0.00 | 0.00 | 51 | 1010.1 |
| 20260901011203 | 74 | 291 | 0.9 | 1.7 | 0.00 | 0.00 | 0.00 | 51 | 1010.1 |
| 20260901010703 | 75 | 291 | 0.9 | 2.6 | 0.00 | 0.00 | 0.00 | 51 | 1010.1 |
| 20260901010203 | 75 | 291 | 1.7 | 2.6 | 0.00 | 0.00 | 0.00 | 50 | 1010.1 |
| 20260901004204 | 75 | 291 | 1.7 | 2.6 | 0.00 | 0.00 | 0.00 | 50 | 1010.0 |
| 20260901000204 | 73 | 291 | 0.0 | 2.6 | 0.00 | 0.00 | 0.00 | 56 | 1010.0 |
| 20260831234203 | 72 | 291 | 0.9 | 1.7 | 0.00 | 0.00 | 0.00 | 59 | 1010.1 |
| 20260831233703 | 72 | 291 | 0.0 | 1.7 | 0.00 | 0.00 | 0.00 | 60 | 1010.1 |
| 20260831233203 | 72 | 291 | 0.0 | 1.7 | 0.00 | 0.00 | 0.00 | 60 | 1010.1 |
| 20260831231703 | 74 | 291 | 0.9 | 1.7 | 0.00 | 0.00 | 0.00 | 57 | 1010.1 |
| 20260831231203 | 75 | 291 | 0.9 | 1.7 | 0.00 | 0.00 | 0.00 | 56 | 1010.0 |
| 20260831224704 | 76 | 291 | 0.0 | 1.7 | 0.00 | 0.00 | 0.00 | 52 | 1009.5 |
| 20260831223203 | 77 | 291 | 0.9 | 2.6 | 0.00 | 0.00 | 0.00 | 50 | 1009.5 |
| 20260831221703 | 77 | 291 | 0.9 | 2.6 | 0.00 | 0.00 | 0.00 | 49 | 1009.5 |
| 20260831220204 | 78 | 291 | 0.9 | 2.6 | 0.00 | 0.00 | 0.00 | 49 | 1009.5 |
| 20260831214703 | 78 | 291 | 1.7 | 4.3 | 0.00 | 0.00 | 0.00 | 48 | 1009.5 |
| 20260831214203 | 78 | 291 | 1.7 | 4.3 | 0.00 | 0.00 | 0.00 | 49 | 1009.5 |
| 20260831213204 | 78 | 291 | 0.9 | 4.3 | 0.00 | 0.00 | 0.00 | 49 | 1009.5 |
| 20260831210704 | 79 | 291 | 0.9 | 2.6 | 0.00 | 0.00 | 0.00 | 48 | 1008.8 |
| 20260831204203 | 79 | 291 | 4.3 | 6.1 | 0.00 | 0.00 | 0.00 | 49 | 1008.8 |
| 20260831203704 | 80 | 300 | 4.3 | 5.2 | 0.00 | 0.00 | 0.00 | 48 | 1008.8 |
| 20260831203203 | 80 | 300 | 4.3 | 7.0 | 0.00 | 0.00 | 0.00 | 48 | 1008.8 |
| 20260831201704 | 80 | 305 | 2.6 | 4.3 | 0.00 | 0.00 | 0.00 | 47 | 1008.5 |
| 20260831201203 | 80 | 305 | 2.6 | 6.1 | 0.00 | 0.00 | 0.00 | 47 | 1008.5 |
| 20260831200703 | 80 | 305 | 2.6 | 5.2 | 0.00 | 0.00 | 0.00 | 47 | 1008.5 |
| 20260831194203 | 82 | 305 | 2.6 | 4.3 | 0.00 | 0.00 | 0.00 | 46 | 1008.5 |
| 20260831193704 | 82 | 305 | 1.7 | 2.6 | 0.00 | 0.00 | 0.00 | 46 | 1008.5 |
| 20260831193203 | 82 | 305 | 1.7 | 4.3 | 0.00 | 0.00 | 0.00 | 45 | 1008.5 |
| 20260831190704 | 83 | 305 | 2.6 | 6.1 | 0.00 | 0.00 | 0.00 | 43 | 1008.5 |
| 20260831184703 | 84 | 345 | 1.7 | 4.3 | 0.00 | 0.00 | 0.00 | 41 | 1007.9 |
| 20260831184203 | 84 | 346 | 1.7 | 2.6 | 0.00 | 0.00 | 0.00 | 40 | 1007.9 |
| 20260831180205 | 87 | 348 | 0.0 | 2.6 | 0.00 | 0.00 | 0.00 | 37 | 1007.9 |
| 20260831174205 | 89 | 348 | 0.9 | 2.6 | 0.00 | 0.00 | 0.00 | 34 | 1007.9 |
| 20260831173205 | 90 | 347 | 0.9 | 2.6 | 0.00 | 0.00 | 0.00 | 34 | 1007.9 |
| 20260831171205 | 90 | 338 | 0.9 | 2.6 | 0.00 | 0.00 | 0.00 | 33 | 1007.9 |
| 20260831170705 | 90 | 336 | 1.7 | 4.3 | 0.00 | 0.00 | 0.00 | 32 | 1007.9 |
| 20260831164705 | 91 | 334 | 1.7 | 4.3 | 0.00 | 0.00 | 0.00 | 33 | 1007.9 |
| 20260831164205 | 91 | 355 | 1.7 | 2.6 | 0.00 | 0.00 | 0.00 | 32 | 1007.9 |
| 20260831163705 | 91 | 356 | 1.7 | 2.6 | 0.00 | 0.00 | 0.00 | 33 | 1007.9 |
| 20260831163205 | 91 | 5 | 1.7 | 2.6 | 0.00 | 0.00 | 0.00 | 32 | 1007.9 |
| 20260831154704 | 93 | 0 | 0.0 | 2.6 | 0.00 | 0.00 | 0.00 | 28 | 1008.2 |
| 20260831154205 | 93 | 0 | 0.9 | 2.6 | 0.00 | 0.00 | 0.00 | 29 | 1008.2 |
| 20260831153204 | 93 | 324 | 0.9 | 5.2 | 0.00 | 0.00 | 0.00 | 31 | 1008.2 |
| 20260831151705 | 93 | 18 | 1.7 | 4.3 | 0.00 | 0.00 | 0.00 | 30 | 1008.2 |
| 20260831151205 | 93 | 36 | 1.7 | 2.6 | 0.00 | 0.00 | 0.00 | 30 | 1008.3 |
| 20260831150705 | 93 | 40 | 2.6 | 5.2 | 0.00 | 0.00 | 0.00 | 30 | 1008.3 |
| 20260831144705 | 93 | 11 | 0.9 | 5.2 | 0.00 | 0.00 | 0.00 | 29 | 1008.3 |
| 20260831134705 | 92 | 49 | 1.7 | 4.3 | 0.00 | 0.00 | 0.00 | 30 | 1008.5 |
| 20260831134204 | 93 | 50 | 1.7 | 4.3 | 0.00 | 0.00 | 0.00 | 30 | 1008.5 |
| 20260831131705 | 92 | 16 | 0.9 | 2.6 | 0.00 | 0.00 | 0.00 | 32 | 1008.5 |
| 20260831131204 | 92 | 5 | 1.7 | 4.3 | 0.00 | 0.00 | 0.00 | 31 | 1009.0 |
| 20260831130705 | 92 | 14 | 2.6 | 5.2 | 0.00 | 0.00 | 0.00 | 31 | 1009.0 |
| 20260831124705 | 90 | 9 | 2.6 | 6.1 | 0.00 | 0.00 | 0.00 | 33 | 1009.0 |
| 20260831124205 | 90 | 9 | 1.7 | 6.1 | 0.00 | 0.00 | 0.00 | 33 | 1009.0 |
| 20260831123705 | 91 | 4 | 1.7 | 2.6 | 0.00 | 0.00 | 0.00 | 33 | 1009.5 |
| 20260831121204 | 90 | 19 | 1.7 | 5.2 | 0.00 | 0.00 | 0.00 | 35 | 1009.5 |
| 20260831113205 | 89 | 51 | 1.7 | 4.3 | 0.00 | 0.00 | 0.00 | 35 | 1009.8 |
| 20260831110705 | 88 | 16 | 1.7 | 4.3 | 0.00 | 0.00 | 0.00 | 37 | 1009.8 |
| 20260831110205 | 88 | 37 | 2.6 | 8.7 | 0.00 | 0.00 | 0.00 | 38 | 1010.0 |
| 20260831103204 | 88 | 326 | 2.6 | 6.1 | 0.00 | 0.00 | 0.00 | 38 | 1010.0 |
| 20260831101205 | 88 | 50 | 1.7 | 4.3 | 0.00 | 0.00 | 0.00 | 37 | 1010.0 |
| 20260831094204 | 88 | 44 | 0.9 | 2.6 | 0.00 | 0.00 | 0.00 | 38 | 1010.0 |
| 20260831093204 | 87 | 44 | 1.7 | 2.6 | 0.00 | 0.00 | 0.00 | 38 | 1010.2 |
| 20260831091704 | 86 | 26 | 0.9 | 2.6 | 0.00 | 0.00 | 0.00 | 38 | 1010.2 |
| 20260831084204 | 84 | 9 | 0.0 | 1.7 | 0.00 | 0.00 | 0.00 | 40 | 1010.1 |
| 20260831083704 | 84 | 9 | 0.9 | 2.6 | 0.00 | 0.00 | 0.00 | 41 | 1010.1 |
| 20260831083205 | 84 | 9 | 1.7 | 2.6 | 0.00 | 0.00 | 0.00 | 40 | 1010.1 |